AirNav   Phillips 66 Aviation Fuel
 
 669 users online  

5T0 Ward Airpark
Beasley, Texas, USA

GOING TO BEASLEY?


FAA INFORMATION EFFECTIVE 16 AUGUST 2018

Location

FAA Identifier: 5T0
Lat/Long: 29-30-09.8000N / 095-56-09.5000W
29-30.163333N / 095-56.158333W
29.5027222 / -95.9359722
(estimated)
Elevation: 107 ft. / 33 m (estimated)
Variation: 06E (1985)
From city: 1 mile NW of BEASLEY, TX
Time zone: UTC -5 (UTC -6 during Standard Time)
Zip code: 77417

Airport Operations

Airport use: Open to the public
Activation date: 05/1981
Control tower: no
ARTCC: HOUSTON CENTER
FSS: MONTGOMERY COUNTY FLIGHT SERVICE STATION
FOR FP FILING CALL CXO FSS 1-800-833-5602.
NOTAMs facility: CXO (NOTAM-D service available)
Attendance: UNATND
Wind indicator: yes
Segmented circle: no

Airport Communications

CTAF: 122.9
WX ASOS at SGR (16 nm NE): 118.125 (281-242-7605)
WX AWOS-3 at TME (18 nm N): 119.525 (281-945-5451)
WX AWOS-3 at ARM (19 nm SW): 118.475 (979-532-2791)

Nearby radio navigation aids

VOR radial/distance  VOR name  Freq  Var
ELAr108/22.1EAGLE LAKE VOR/DME116.4008E
HUBr250/35.6HOBBY VOR/DME117.1005E

 
NDB name  Hdg/Dist  Freq  Var  ID
WHARTON034/18.724503EARM .- .-. --

Airport Services

Runway Information

Runway 4/22

Dimensions: 3110 x 100 ft. / 948 x 30 m
Surface: turf, in fair condition
RUNWAY 4  RUNWAY 22
Latitude: 29-29.979588N29-30.346815N
Longitude: 095-56.362723W095-55.952833W
Elevation: 106.0 ft.107.0 ft.
Traffic pattern: leftleft
Runway heading: 038 magnetic, 044 true218 magnetic, 224 true
Obstructions: 30 ft. pline, marked50 ft. trees, 2066 ft. from runway, 140 ft. left of centerline, 41:1 slope to clear

Airport Ownership and Management from official FAA records

Ownership: Privately-owned
Owner: MALCOLM WARD
P.O. BOX 2188
PORT ARANASAS, TX 78373
Phone (351) 793-9325
Manager: MALCOLM WARD
P.O. BOX 2188
PORT ARANASAS, TX 78373
Phone (351) 793-9325

Airport Operational Statistics

Aircraft based on the field: 1
Single engine airplanes: 1
    
Aircraft operations: avg 21/month *
100% transient general aviation
* for 12-month period ending 31 December 2016

Additional Remarks

FOR CD CTC HOUSTON APCH AT 281-443-5844 TO CNL IFR CALL 281-443-5888.

Instrument Procedures

There are no published instrument procedures at 5T0.

Some nearby airports with instrument procedures:

KSGR - Sugar Land Regional Airport (16 nm NE)
KTME - Houston Executive Airport (18 nm N)
KARM - Wharton Regional Airport (19 nm SW)
KELA - Eagle Lake Airport (21 nm W)
KIWS - West Houston Airport (23 nm NE)
 
Loc | Ops | Rwys | IFR | FBO | Links
Com | Nav | Svcs | Stats | Notes


 
Area around 5T0 (Ward Airpark)
 
Road maps at: MapQuest Bing Google
 
Aerial photo
No photo
 
Sectional chart

 
Airport distance calculator
Flying to Ward Airpark? Find the distance to fly.

From to 5T0

Sunrise and sunset
Times for 21-Aug-2018
 Local
(UTC-5)
 Zulu
(UTC)
Morning civil twilight06:3111:31
Sunrise06:5611:56
Sunset19:5800:58
Evening civil twilight20:2201:22

Current date and time
Zulu (UTC)  22-Aug-2018 04:26:14
Local (UTC-5)  21-Aug-2018 23:26:14
 
METAR
KSGR 
16nm NE 
220353Z AUTO 18007KT 10SM CLR 29/25 A3010 RMK AO2 LTG DSNT NE SLP192 T02940250
KTME 
18nm N 
220355Z AUTO 19007KT 10SM CLR 29/24 A3010 RMK AO2
KARM 
19nm SW 
220355Z AUTO 12003KT 10SM 27/24 A3009 RMK AO2 LTG DSNT N T02720235
KELA 
21nm W 
220355Z AUTO 11005KT 10SM CLR 29/25 A3009 RMK AO2 LTG DSNT NE T02860253
KAXH 
24nm E 
220355Z AUTO 00000KT 10SM CLR 28/25 A3011 RMK AO2 LTG DSNT NW T02750245
K66R 
31nm W 
220355Z AUTO 18003KT 10SM CLR 28/23 A3010 RMK AO2 LTG DSNT NE T02800226
KBYY 
32nm S 
220355Z AUTO 17004KT 10SM CLR 26/25 A3008 RMK AO2 T02680253
TAF
KSGR 
16nm NE 
220056Z 2201/2224 VRB05G15KT P6SM VCTS SCT060CB BKN250 FM220400 VRB03KT P6SM SCT250 FM221800 34005KT P6SM SKC
NOTAMs
Click for the latest NOTAMs
NOTAMs are issued by the DoD/FAA and will open in a separate window not controlled by AirNav.

 

 
 

Would you like to see your business listed on this page?

 If your business provides an interesting product or service to pilots, flight crews, aircraft, or users of the Ward Airpark, you should consider listing it here.  To start the listing process, click on the button below
 
Add a business
 

Other Pages about Ward Airpark

Update a link
 
Copyright © AirNav, LLC. All rights reserved. Privacy Policy  Contact